Location: Gälforsberget
(66.6500°N, 22.4167°E)
Time: 22:20:55
(UTC+00:00)

USA 229 DEB - Pass Details

Date: 11 April 2026
Orbit: 844 x 1364 km, 63.4° (Epoch: 10 January)

Event Time Altitude Azimuth Distance (km) Brightness Sun altitude
Rises 20:22:44 0° 252° (WSW) 3,656 6.7 -11.3°
Reaches altitude 10° 20:25:10 10° 250° (WSW) 2,773 6.0 -11.4°
Maximum altitude 20:31:40 68° 170° (S) 1,180 3.7 -11.7°
Drops below altitude 10° 20:39:07 10° 90° (E) 3,155 5.9 -12.1°
Sets 20:42:03 0° 88° (E) 4,191 6.5 -12.2°
